[[{"header":{"parameterUnit":"m.s-1","parameterCategory":2,"la1":30.2991,"la2":30.254,"lo1":-89.0895,"lo2":-89.0444,"dy":0.0017,"dx":0.0017,"nx":28,"ny":28,"refTime":"2023-08-01T09:00:00:Z","depth":"0","parameterNumber":2,"parameterNumberName":"U-component_of_CURRENTS"},"data":[0,0,0,0,0,0,0,0,0,0,0,0,0,0,0,0,0,0,0,0,0,0,0,0,0,0,0,0,0,0,0,0,0,0,0,0,0,0,0,0,0,0,0,0,0,0,0,0,0,0,0,0,0,0,0,0,0,0,-0.1995,-0.1995,0,-0.202,-0.202,-0.202,-0.2037,-0.2037,-0.2037,-0.2037,-0.2,-0.1998,-0.1997,0,0,0,0,0,0,0,0,0,0,0,0,0,-0.1824,-0.1828,-0.1995,-0.1995,-0.1996,-0.202,-0.202,-0.202,-0.2036,-0.2037,-0.2037,-0.2038,-0.2,-0.1998,-0.1997,0,0,0,0,0,0,0,0,0,0,0,0,0,-0.1877,-0.1829,-0.1995,-0.2008,-0.201,-0.2019,-0.202,-0.202,-0.2036,-0.2037,-0.2037,-0.2038,-0.2,-0.1999,-0.1997,-0.1976,0,0,-0.1991,-0.199,0,0,0,0,0,0,0,0,-0.1874,-0.1883,-0.2006,-0.2007,-0.2009,-0.2027,-0.1946,-0.2003,-0.2036,-0.2024,-0.2037,-0.2038,-0.2004,-0.2002,-0.2004,-0.1974,-0.1973,-0.1991,-0.199,-0.1989,-0.1988,0,0,0,0,0,0,0,-0.1871,-0.1881,-0.2003,-0.2006,-0.2008,-0.1966,-0.1975,-0.1956,-0.2009,-0.2025,-0.2027,-0.2033,-0.2004,-0.2005,-0.2003,-0.1972,-0.1991,-0.1989,-0.1988,-0.1987,-0.1992,-0.1993,0,0,0,0,0,0,-0.1879,-0.1879,-0.2002,-0.2004,-0.1944,-0.197,-0.1979,-0.2019,-0.201,-0.201,-0.2032,-0.2034,-0.2008,-0.2005,-0.2001,-0.2037,-0.1989,-0.1987,-0.1986,-0.1991,-0.1992,-0.1994,0,0,0,0,0,0,-0.1876,-0.1891,-0.2001,-0.194,-0.1952,-0.1973,-0.2017,-0.202,-0.2023,-0.2017,-0.2015,-0.2034,-0.2009,-0.2004,-0.2018,-0.2034,-0.1986,-0.1984,-0.1989,-0.1991,-0.1993,-0.207,0,0,0,0,0,0,-0.1872,-0.1891,-0.1907,-0.1943,-0.1956,-0.2024,-0.2017,-0.202,-0.2027,-0.2029,-0.2017,-0.2014,-0.2009,-0.2022,-0.2016,-0.203,-0.1983,-0.1988,-0.199,-0.1992,-0.2066,-0.2074,-0.2082,0,0,0,0,0,-0.1866,-0.189,-0.1908,-0.1922,-0.1985,-0.2025,-0.2028,-0.204,-0.2026,-0.2041,-0.2045,-0.2015,-0.2033,-0.2021,-0.2015,-0.2028,-0.1987,-0.199,-0.1992,-0.2062,-0.2073,-0.2081,0,0,0,0,0,0,-0.1813,-0.1896,-0.1916,-0.1962,-0.1999,-0.2029,-0.203,-0.2037,-0.2049,-0.2046,-0.2032,-0.2031,-0.2054,-0.2028,-0.2015,-0.2038,-0.2003,-0.2005,-0.2058,-0.2067,-0.2075,-0.208,-0.1981,0,0,0,0,0,-0.1814,-0.1859,-0.1924,-0.1954,-0.1977,-0.2001,-0.201,-0.2029,-0.2048,-0.2053,-0.2049,-0.2045,-0.2058,-0.2054,-0.2059,-0.206,-0.2055,-0.2064,-0.2072,-0.2079,-0.2079,-0.2111,-0.2122,-0.2003,-0.2003,-0.2003,0,0,-0.1795,-0.1846,-0.1868,-0.1945,-0.1968,-0.2007,-0.2007,-0.2036,-0.206,-0.2044,-0.2062,-0.2074,-0.2069,-0.2094,-0.2098,-0.2073,-0.2111,-0.2083,-0.2089,-0.2085,-0.2116,-0.2127,-0.2138,-0.2005,-0.2005,-0.2005,0,0,-0.1779,-0.1836,-0.1868,-0.1913,-0.1968,-0.1997,-0.2008,-0.2052,-0.2066,-0.209,-0.21,-0.2135,-0.2116,-0.2149,-0.2153,-0.22,-0.2161,-0.2182,-0.2213,-0.2245,-0.2255,-0.2264,-0.2278,-0.2287,-0.2175,-0.2175,-0.2175,0,-0.1745,-0.1815,-0.1875,-0.192,-0.195,-0.1996,-0.2029,-0.2057,-0.2097,-0.2114,-0.2103,-0.2147,-0.215,-0.2204,-0.223,-0.222,-0.2215,-0.2179,-0.2256,-0.2265,-0.2272,-0.2284,-0.2293,-0.2179,-0.2179,-0.2178,-0.2178,0,-0.1765,-0.1817,-0.1837,-0.1923,-0.1963,-0.2,-0.2064,-0.2095,-0.2107,-0.2139,-0.2191,-0.222,-0.2244,-0.2257,-0.2254,-0.2314,-0.2287,-0.2273,-0.2233,-0.2289,-0.2298,-0.2306,-0.2185,-0.2184,-0.2182,-0.2181,0,0,-0.1695,-0.1825,-0.1831,-0.187,-0.1972,-0.2003,-0.206,-0.2127,-0.2153,-0.2201,-0.2235,-0.2298,-0.2316,-0.2324,-0.234,-0.2371,-0.2435,-0.2338,-0.2338,-0.2353,-0.2486,-0.2472,-0.2479,-0.2426,-0.2428,-0.2429,-0.2472,0,-0.1685,-0.1762,-0.1836,-0.1895,-0.1941,-0.2017,-0.2061,-0.2129,-0.2175,-0.2222,-0.2284,-0.232,-0.2339,-0.2349,-0.2397,-0.2418,-0.2459,-0.2424,-0.2427,-0.2427,-0.241,-0.2489,-0.2298,-0.2321,-0.248,-0.2481,-0.2482,0,-0.1678,-0.1737,-0.1795,-0.1895,-0.1918,-0.1955,-0.2038,-0.2086,-0.2184,-0.2218,-0.2292,-0.2331,-0.241,-0.2401,-0.2491,-0.2459,-0.2483,-0.2501,-0.2503,-0.2466,-0.2429,-0.2289,-0.233,-0.2123,-0.2495,-0.2494,-0.2493,0,-0.1595,-0.1703,-0.1744,-0.1782,-0.1901,-0.1924,-0.1976,-0.2075,-0.2115,-0.2211,-0.2245,-0.2348,-0.2378,-0.2442,-0.2503,-0.2486,-0.2584,-0.2562,-0.2582,-0.258,-0.2408,-0.2388,-0.2249,-0.2636,-0.2635,-0.2635,-0.2635,0,-0.1563,-0.1591,-0.1703,-0.1726,-0.1757,-0.186,-0.1896,-0.1966,-0.2064,-0.212,-0.2226,-0.2285,-0.2385,-0.2459,-0.2511,-0.2579,-0.2596,-0.2607,-0.2603,-0.243,-0.2413,-0.2216,-0.2251,-0.2637,-0.2637,-0.2636,-0.2636,0,-0.1465,-0.1545,-0.1587,-0.1693,-0.1719,-0.1732,-0.1831,-0.1862,-0.1969,-0.2044,-0.2072,-0.2227,-0.2324,-0.243,-0.2529,-0.2575,-0.2578,-0.2665,-0.2454,-0.2426,-0.2248,-0.2299,-0.2386,-0.2322,-0.2685,-0.2685,-0.2685,0,-0.1426,-0.144,-0.1527,-0.154,-0.1581,-0.1625,-0.1655,-0.1782,-0.1831,-0.2013,-0.204,-0.2174,-0.2267,-0.2424,-0.2499,-0.2591,-0.2562,-0.2492,-0.2448,-0.2228,-0.228,-0.2363,-0.2307,-0.2241,-0.2238,-0.2235,-0.2233,0,-0.134,-0.1362,-0.1395,-0.1424,-0.1448,-0.1483,-0.1546,-0.1581,-0.1741,-0.1834,-0.1977,-0.2071,-0.2226,-0.2247,-0.2376,-0.2422,-0.2362,-0.2439,-0.2247,-0.1976,-0.2021,-0.1954,-0.2217,-0.2207,-0.2209,-0.2211,-0.2213,-0.2214,-0.1261,-0.1248,-0.1287,-0.13,-0.133,-0.1348,-0.1344,-0.1449,-0.1534,-0.1683,-0.1848,-0.1959,-0.1991,-0.2142,-0.2118,-0.1949,-0.2229,-0.1895,-0.1992,-0.2104,-0.2001,-0.2227,-0.2197,-0.2199,-0.2201,-0.2203,-0.2205,0,-0.1183,-0.1174,-0.117,-0.1189,-0.1182,-0.1232,-0.1277,-0.1284,-0.1363,-0.1528,-0.1667,-0.1739,-0.1663,-0.1622,-0.1524,-0.1463,-0.1441,-0.1451,-0.1418,-0.1396,-0.155,-0.1471,-0.1235,-0.1235,-0.1235,-0.1236,-0.1236,-0.1236,-0.1145,-0.1108,-0.1099,-0.105,-0.1059,-0.1024,-0.1029,-0.107,-0.1155,-0.1274,-0.1366,-0.1492,-0.1434,-0.1346,-0.1052,-0.1009,-0.0958,-0.1076,-0.1145,-0.1079,-0.1122,-0.1162,-0.1079,-0.0765,-0.0765,-0.0808,-0.0809,-0.0809]},{"header":{"parameterUnit":"m.s-1","parameterCategory":2,"la1":30.2991,"la2":30.254,"lo1":-89.0895,"lo2":-89.0444,"dy":0.0017,"dx":0.0017,"nx":28,"ny":28,"refTime":"2023-08-01T09:00:00:Z","depth":"0","parameterNumber":3,"parameterNumberName":"V-component_of_CURRENTS"},"data":[0,0,0,0,0,0,0,0,0,0,0,0,0,0,0,0,0,0,0,0,0,0,0,0,0,0,0,0,0,0,0,0,0,0,0,0,0,0,0,0,0,0,0,0,0,0,0,0,0,0,0,0,0,0,0,0,0,0,-0.1376,-0.1375,0,-0.1316,-0.1315,-0.1314,-0.1216,-0.1214,-0.1213,-0.1211,-0.1176,-0.1176,-0.1177,0,0,0,0,0,0,0,0,0,0,0,0,0,-0.1418,-0.1417,-0.1376,-0.1375,-0.1374,-0.1316,-0.1315,-0.1314,-0.1216,-0.1214,-0.1212,-0.121,-0.1175,-0.1176,-0.1177,0,0,0,0,0,0,0,0,0,0,0,0,0,-0.1382,-0.1417,-0.1376,-0.1319,-0.1314,-0.1316,-0.1315,-0.1314,-0.1217,-0.1214,-0.1212,-0.1209,-0.1175,-0.1176,-0.1177,-0.1235,0,0,-0.118,-0.1181,0,0,0,0,0,0,0,0,-0.1384,-0.138,-0.1328,-0.1323,-0.1317,-0.1271,-0.1317,-0.1289,-0.1217,-0.1253,-0.1211,-0.1208,-0.1213,-0.121,-0.1203,-0.1233,-0.1231,-0.118,-0.1181,-0.1181,-0.1181,0,0,0,0,0,0,0,-0.1387,-0.1383,-0.1351,-0.1328,-0.1321,-0.1301,-0.1293,-0.1311,-0.1248,-0.1249,-0.1242,-0.1238,-0.1209,-0.1202,-0.1202,-0.1231,-0.118,-0.1181,-0.1182,-0.1182,-0.1283,-0.1285,0,0,0,0,0,0,-0.1398,-0.1385,-0.1353,-0.1349,-0.1346,-0.1302,-0.1293,-0.1288,-0.1247,-0.1238,-0.124,-0.1234,-0.1202,-0.1201,-0.12,-0.1241,-0.1181,-0.1182,-0.1183,-0.1281,-0.1284,-0.1286,0,0,0,0,0,0,-0.14,-0.1396,-0.1355,-0.1366,-0.136,-0.1304,-0.1299,-0.1288,-0.1284,-0.1239,-0.123,-0.1247,-0.12,-0.1199,-0.1219,-0.124,-0.1183,-0.1183,-0.1279,-0.1282,-0.1285,-0.134,0,0,0,0,0,0,-0.1401,-0.1397,-0.14,-0.1367,-0.136,-0.1371,-0.1301,-0.1289,-0.1285,-0.1276,-0.1244,-0.1236,-0.1198,-0.1217,-0.122,-0.124,-0.1184,-0.1276,-0.128,-0.1284,-0.1336,-0.1345,-0.1353,0,0,0,0,0,-0.1403,-0.1432,-0.1401,-0.1397,-0.1365,-0.1372,-0.1368,-0.1318,-0.1288,-0.1302,-0.1272,-0.1237,-0.1243,-0.1221,-0.1222,-0.1244,-0.1274,-0.1279,-0.1283,-0.1332,-0.1343,-0.1352,0,0,0,0,0,0,-0.1459,-0.1424,-0.1389,-0.1405,-0.1391,-0.1356,-0.1357,-0.1339,-0.1328,-0.1311,-0.127,-0.1264,-0.1282,-0.1274,-0.125,-0.1287,-0.1252,-0.1258,-0.1289,-0.1299,-0.1307,-0.1312,-0.1185,0,0,0,0,0,-0.1472,-0.1476,-0.1443,-0.1456,-0.1444,-0.1406,-0.1403,-0.1377,-0.136,-0.135,-0.1331,-0.1314,-0.1308,-0.1311,-0.1303,-0.1342,-0.1336,-0.1358,-0.1366,-0.1373,-0.1382,-0.1367,-0.1374,-0.1301,-0.1301,-0.1301,0,0,-0.1497,-0.1479,-0.148,-0.1468,-0.1438,-0.1444,-0.1397,-0.1399,-0.1411,-0.1355,-0.1368,-0.1345,-0.1325,-0.1342,-0.1352,-0.1336,-0.1404,-0.1379,-0.1385,-0.139,-0.1373,-0.1379,-0.1385,-0.1305,-0.1304,-0.1303,0,0,-0.155,-0.1527,-0.1538,-0.1528,-0.1502,-0.1486,-0.1497,-0.1473,-0.146,-0.1484,-0.1433,-0.1434,-0.1438,-0.1419,-0.1411,-0.1479,-0.1444,-0.1476,-0.1526,-0.1512,-0.1517,-0.1521,-0.157,-0.1578,-0.1484,-0.1484,-0.1485,0,-0.1574,-0.1578,-0.155,-0.1553,-0.1548,-0.1512,-0.1528,-0.1526,-0.152,-0.1525,-0.1496,-0.1491,-0.1474,-0.1489,-0.1497,-0.1497,-0.1495,-0.1482,-0.152,-0.1524,-0.1527,-0.1575,-0.1583,-0.1488,-0.1487,-0.1487,-0.1487,0,-0.162,-0.1623,-0.1631,-0.1614,-0.1622,-0.1631,-0.1616,-0.1631,-0.1617,-0.161,-0.1624,-0.1594,-0.159,-0.1586,-0.1557,-0.1579,-0.1576,-0.1525,-0.1486,-0.1537,-0.1586,-0.1593,-0.1492,-0.1491,-0.149,-0.1489,0,0,-0.1659,-0.1661,-0.1659,-0.1655,-0.1648,-0.1658,-0.169,-0.1705,-0.1728,-0.1716,-0.1742,-0.1725,-0.17,-0.1692,-0.1657,-0.1644,-0.1679,-0.1596,-0.1594,-0.1633,-0.1689,-0.1586,-0.1584,-0.1613,-0.1614,-0.1614,-0.173,0,-0.1688,-0.1713,-0.1715,-0.1744,-0.1743,-0.1735,-0.1769,-0.1784,-0.1794,-0.1818,-0.1788,-0.1797,-0.1744,-0.1738,-0.1719,-0.1673,-0.1693,-0.1656,-0.1644,-0.1646,-0.1535,-0.1586,-0.1425,-0.1503,-0.1737,-0.1738,-0.1739,0,-0.1712,-0.1724,-0.1757,-0.1782,-0.1782,-0.1809,-0.1844,-0.1873,-0.1903,-0.1909,-0.1913,-0.189,-0.1887,-0.1822,-0.1797,-0.1767,-0.1748,-0.1716,-0.1719,-0.1601,-0.1553,-0.1482,-0.1506,-0.119,-0.1749,-0.1748,-0.1748,0,-0.172,-0.1751,-0.178,-0.1783,-0.1812,-0.1836,-0.1858,-0.1896,-0.1919,-0.1968,-0.1983,-0.1979,-0.1962,-0.1925,-0.1856,-0.183,-0.1821,-0.1781,-0.1696,-0.1692,-0.1543,-0.1523,-0.1241,-0.1789,-0.1788,-0.1788,-0.1788,0,-0.1733,-0.1748,-0.1784,-0.1789,-0.1828,-0.1848,-0.1898,-0.1928,-0.197,-0.2001,-0.2019,-0.2029,-0.1971,-0.195,-0.1903,-0.1815,-0.1866,-0.1722,-0.1701,-0.1565,-0.1545,-0.1251,-0.1108,-0.1793,-0.1792,-0.1791,-0.179,0,-0.1716,-0.1744,-0.1767,-0.1809,-0.1825,-0.1846,-0.1896,-0.1934,-0.198,-0.2021,-0.2035,-0.2059,-0.2031,-0.1989,-0.194,-0.1857,-0.1619,-0.1769,-0.1642,-0.16,-0.1191,-0.106,-0.0899,-0.0758,-0.1708,-0.1706,-0.1704,0,-0.1701,-0.1715,-0.1765,-0.1783,-0.1798,-0.1836,-0.1866,-0.1924,-0.1964,-0.2027,-0.2043,-0.2048,-0.2044,-0.1957,-0.1817,-0.1749,-0.1539,-0.1543,-0.1446,-0.1144,-0.0984,-0.0962,-0.0854,-0.1319,-0.1314,-0.131,-0.1307,0,-0.166,-0.1686,-0.1707,-0.1749,-0.1784,-0.1826,-0.1874,-0.1907,-0.1977,-0.2023,-0.2065,-0.2074,-0.1972,-0.182,-0.1692,-0.1579,-0.1242,-0.1458,-0.1153,-0.0657,-0.0607,-0.0468,-0.132,-0.1272,-0.1276,-0.1279,-0.128,-0.1282,-0.1614,-0.1626,-0.1666,-0.1706,-0.1749,-0.1804,-0.1834,-0.1907,-0.1968,-0.2051,-0.2057,-0.2099,-0.1812,-0.1601,-0.1409,-0.0859,-0.1,-0.0678,-0.0564,-0.0589,-0.0352,-0.1149,-0.1045,-0.1047,-0.1049,-0.1051,-0.1052,0,-0.155,-0.1583,-0.1619,-0.167,-0.171,-0.1752,-0.1827,-0.1868,-0.1942,-0.2064,-0.2106,-0.1938,-0.1517,-0.1137,-0.0442,-0.0032,0.0044,0.0204,0.0327,0.0378,-0.0313,-0.0181,0.0131,0.0131,0.0131,0.013,0.013,0.013,-0.1516,-0.1534,-0.1572,-0.1616,-0.1658,-0.1702,-0.1743,-0.1828,-0.1926,-0.2016,-0.2054,-0.2091,-0.1372,-0.012,0.0757,0.0879,0.1172,0.1168,0.1244,0.0884,0.0812,0.0743,0.0907,0.1441,0.1443,0.1925,0.1931,0.1936]}],[{"header":{"parameterUnit":"m.s-1","parameterCategory":2,"la1":30.2991,"la2":30.254,"lo1":-89.0895,"lo2":-89.0444,"dy":0.0017,"dx":0.0017,"nx":28,"ny":28,"refTime":"2023-08-01T09:00:00:Z","depth":"2","parameterNumber":2,"parameterNumberName":"U-component_of_CURRENTS"},"data":[0,0,0,0,0,0,0,0,0,0,0,0,0,0,0,0,0,0,0,0,0,0,0,0,0,0,0,0,0,0,0,0,0,0,0,0,0,0,0,0,0,0,0,0,0,0,0,0,0,0,0,0,0,0,0,0,0,0,-0.1995,-0.1997,0,-0.2167,-0.217,-0.2172,-0.2277,-0.2277,-0.2277,-0.2277,-0.2412,-0.2416,-0.2419,0,0,0,0,0,0,0,0,0,0,0,0,0,-0.1831,-0.1834,-0.1995,-0.1997,-0.1999,-0.2167,-0.217,-0.2172,-0.2276,-0.2277,-0.2277,-0.2277,-0.2411,-0.2415,-0.2419,0,0,0,0,0,0,0,0,0,0,0,0,0,-0.1946,-0.1834,-0.1995,-0.2069,-0.2077,-0.2167,-0.217,-0.2173,-0.2276,-0.2277,-0.2277,-0.2277,-0.241,-0.2415,-0.242,-0.2444,0,0,-0.2435,-0.2438,0,0,0,0,0,0,0,0,-0.1939,-0.1952,-0.2056,-0.2064,-0.2073,-0.2198,-0.2162,-0.2261,-0.2276,-0.2204,-0.2277,-0.2278,-0.2335,-0.2346,-0.2383,-0.245,-0.2456,-0.2436,-0.2439,-0.2441,-0.2443,0,0,0,0,0,0,0,-0.1931,-0.1945,-0.2067,-0.2058,-0.2068,-0.2119,-0.2135,-0.2182,-0.2267,-0.221,-0.2218,-0.2232,-0.234,-0.2378,-0.2387,-0.2458,-0.2436,-0.244,-0.2443,-0.2445,-0.2517,-0.2516,0,0,0,0,0,0,-0.1899,-0.1938,-0.2061,-0.2071,-0.2002,-0.2121,-0.214,-0.216,-0.2268,-0.2284,-0.2231,-0.2236,-0.2369,-0.2381,-0.2392,-0.2437,-0.2441,-0.2446,-0.2449,-0.2519,-0.2517,-0.2516,0,0,0,0,0,0,-0.1895,-0.1909,-0.2054,-0.2006,-0.2027,-0.2123,-0.2146,-0.2163,-0.2209,-0.2283,-0.23,-0.2259,-0.237,-0.2385,-0.2466,-0.2443,-0.2448,-0.2453,-0.252,-0.2518,-0.2517,-0.2521,0,0,0,0,0,0,-0.189,-0.1907,-0.1916,-0.2003,-0.2029,-0.2098,-0.2146,-0.2166,-0.2215,-0.2223,-0.2312,-0.2325,-0.2371,-0.2458,-0.2471,-0.245,-0.2457,-0.2521,-0.2519,-0.2517,-0.2523,-0.252,-0.2518,0,0,0,0,0,-0.1884,-0.1887,-0.1916,-0.1931,-0.2037,-0.2098,-0.2115,-0.2187,-0.2216,-0.2231,-0.2317,-0.2323,-0.245,-0.2465,-0.2479,-0.2458,-0.2522,-0.252,-0.2517,-0.2524,-0.252,-0.2518,0,0,0,0,0,0,-0.1834,-0.1901,-0.1933,-0.1962,-0.2021,-0.2114,-0.2135,-0.2184,-0.2266,-0.2285,-0.2352,-0.2372,-0.2423,-0.2437,-0.245,-0.2463,-0.2469,-0.2469,-0.2468,-0.2465,-0.2463,-0.2422,-0.2461,0,0,0,0,0,-0.1822,-0.1839,-0.1915,-0.1941,-0.1963,-0.205,-0.2086,-0.2141,-0.222,-0.2257,-0.2329,-0.2382,-0.242,-0.2445,-0.249,-0.2521,-0.251,-0.2498,-0.2496,-0.2494,-0.2465,-0.2448,-0.2442,-0.2508,-0.2508,-0.2508,0,0,-0.1809,-0.185,-0.1861,-0.193,-0.1983,-0.2013,-0.2073,-0.2131,-0.2167,-0.2257,-0.2336,-0.2394,-0.243,-0.2473,-0.2489,-0.2486,-0.2473,-0.2491,-0.249,-0.2461,-0.2445,-0.2438,-0.2433,-0.2506,-0.2506,-0.2506,0,0,-0.1791,-0.1828,-0.1835,-0.1873,-0.1947,-0.1997,-0.2007,-0.2111,-0.2162,-0.2254,-0.2308,-0.2364,-0.2444,-0.2464,-0.2478,-0.248,-0.247,-0.2468,-0.2423,-0.2408,-0.2403,-0.2398,-0.2398,-0.2393,-0.2457,-0.2457,-0.2457,0,-0.178,-0.1806,-0.1848,-0.1866,-0.19,-0.1978,-0.2006,-0.2056,-0.2182,-0.2219,-0.2273,-0.2377,-0.2432,-0.2435,-0.2444,-0.2475,-0.2464,-0.2444,-0.2406,-0.2401,-0.2396,-0.2397,-0.2391,-0.2457,-0.2457,-0.2457,-0.2457,0,-0.1773,-0.1792,-0.1797,-0.1841,-0.1875,-0.1915,-0.1981,-0.2034,-0.2115,-0.2174,-0.2238,-0.2331,-0.2377,-0.2391,-0.2435,-0.24,-0.2407,-0.2419,-0.2419,-0.239,-0.2393,-0.2387,-0.2457,-0.2457,-0.2457,-0.2457,0,0,-0.1774,-0.1791,-0.1795,-0.1811,-0.1876,-0.1909,-0.1944,-0.2006,-0.2035,-0.2133,-0.2177,-0.2245,-0.2287,-0.2301,-0.2342,-0.2333,-0.2326,-0.2354,-0.2354,-0.2363,-0.2294,-0.2165,-0.2147,-0.2331,-0.2329,-0.2328,-0.232,0,-0.1774,-0.1777,-0.1799,-0.182,-0.1836,-0.1896,-0.1922,-0.1979,-0.2053,-0.2112,-0.2161,-0.2224,-0.2245,-0.2293,-0.2275,-0.2343,-0.2305,-0.2327,-0.2311,-0.231,-0.2206,-0.2133,-0.1969,-0.1935,-0.2314,-0.2313,-0.2313,0,-0.1787,-0.1781,-0.179,-0.182,-0.1834,-0.1853,-0.1916,-0.1954,-0.2009,-0.2074,-0.2101,-0.216,-0.2182,-0.2211,-0.222,-0.2233,-0.2233,-0.2262,-0.2262,-0.2124,-0.2167,-0.2018,-0.191,-0.2303,-0.2304,-0.2304,-0.2305,0,-0.1791,-0.1795,-0.18,-0.1809,-0.1839,-0.186,-0.1885,-0.194,-0.1993,-0.204,-0.2108,-0.2107,-0.218,-0.2148,-0.2193,-0.2217,-0.2191,-0.2244,-0.2103,-0.2097,-0.1939,-0.1919,-0.2177,-0.2177,-0.2177,-0.2177,-0.2177,0,-0.1818,-0.1827,-0.1791,-0.1799,-0.1816,-0.1839,-0.1887,-0.1918,-0.1979,-0.2026,-0.2075,-0.211,-0.2169,-0.2175,-0.2164,-0.2097,-0.2155,-0.2056,-0.2061,-0.1937,-0.1918,-0.222,-0.2225,-0.2177,-0.2177,-0.2177,-0.2177,0,-0.1876,-0.1839,-0.1834,-0.1819,-0.1826,-0.1836,-0.19,-0.1946,-0.1988,-0.2055,-0.208,-0.215,-0.2148,-0.2154,-0.2149,-0.2086,-0.2028,-0.1969,-0.182,-0.1803,-0.1963,-0.1969,-0.1842,-0.1837,-0.1832,-0.1828,-0.1825,0,-0.1913,-0.1911,-0.1861,-0.1858,-0.1863,-0.1882,-0.1928,-0.1955,-0.2005,-0.2055,-0.2095,-0.2117,-0.2098,-0.2024,-0.1919,-0.182,-0.1902,-0.1594,-0.1584,-0.1897,-0.1917,-0.193,-0.1941,-0.1412,-0.1406,-0.1401,-0.1397,0,-0.199,-0.1961,-0.195,-0.1917,-0.1926,-0.1945,-0.1987,-0.2009,-0.2039,-0.2072,-0.206,-0.2028,-0.1954,-0.1765,-0.1622,-0.1536,-0.16,-0.1485,-0.1831,-0.1504,-0.1485,-0.1507,-0.1534,-0.1351,-0.1356,-0.1359,-0.1362,-0.1363,-0.2055,-0.2035,-0.1989,-0.1957,-0.1969,-0.1956,-0.1933,-0.198,-0.1969,-0.1925,-0.1957,-0.1818,-0.1709,-0.141,-0.1291,-0.1184,-0.1308,-0.1222,-0.1241,-0.1265,-0.1197,-0.1169,-0.0967,-0.0969,-0.0971,-0.0972,-0.0974,0,-0.209,-0.2044,-0.2045,-0.1948,-0.1932,-0.1938,-0.1944,-0.1885,-0.1811,-0.1763,-0.1704,-0.139,-0.1217,-0.1118,-0.0892,-0.0817,-0.0855,-0.0763,-0.0825,-0.0867,-0.0905,-0.0824,-0.0492,-0.0491,-0.049,-0.049,0,0,-0.209,-0.2034,-0.1983,-0.1876,-0.185,-0.1761,-0.1714,-0.1646,-0.1571,-0.137,-0.1223,-0.1227,-0.1109,-0.0838,-0.0731,-0.0598,-0.075,-0.0552,-0.0929,-0.1048,-0.1087,-0.1138,-0.1054,0,0,0,0,0]},{"header":{"parameterUnit":"m.s-1","parameterCategory":2,"la1":30.2991,"la2":30.254,"lo1":-89.0895,"lo2":-89.0444,"dy":0.0017,"dx":0.0017,"nx":28,"ny":28,"refTime":"2023-08-01T09:00:00:Z","depth":"2","parameterNumber":3,"parameterNumberName":"V-component_of_CURRENTS"},"data":[0,0,0,0,0,0,0,0,0,0,0,0,0,0,0,0,0,0,0,0,0,0,0,0,0,0,0,0,0,0,0,0,0,0,0,0,0,0,0,0,0,0,0,0,0,0,0,0,0,0,0,0,0,0,0,0,0,0,-0.0095,-0.0094,0,0.0033,0.0035,0.0038,0.0168,0.0169,0.017,0.0171,0.0633,0.0644,0.0655,0,0,0,0,0,0,0,0,0,0,0,0,0,-0.0127,-0.0127,-0.0095,-0.0094,-0.0093,0.0033,0.0036,0.0038,0.0167,0.0169,0.017,0.0171,0.0629,0.0642,0.0656,0,0,0,0,0,0,0,0,0,0,0,0,0,-0.0061,-0.0128,-0.0095,-0.0019,-0.0011,0.0033,0.0036,0.0039,0.0167,0.0169,0.017,0.0172,0.0624,0.0641,0.0658,0.0731,0,0,0.071,0.0717,0,0,0,0,0,0,0,0,-0.0065,-0.0059,-0.0031,-0.0024,-0.0016,0.0079,0.0193,0.0284,0.0167,0.0107,0.0171,0.0172,0.0472,0.0502,0.0529,0.0753,0.0773,0.0711,0.0721,0.0729,0.0733,0,0,0,0,0,0,0,-0.007,-0.0063,-0.0036,-0.003,-0.0021,0.0042,0.0054,0.021,0.0292,0.0113,0.0121,0.0122,0.048,0.0512,0.0541,0.0779,0.0711,0.0726,0.0736,0.0743,0.1184,0.1185,0,0,0,0,0,0,-0.0108,-0.0068,-0.004,-0.0033,-0.0046,0.0041,0.0054,0.0054,0.0283,0.0314,0.012,0.0127,0.0482,0.0521,0.0559,0.072,0.0728,0.0744,0.0754,0.1182,0.1184,0.1186,0,0,0,0,0,0,-0.0109,-0.0107,-0.0046,-0.0053,-0.0042,0.0038,0.0038,0.0055,0.0097,0.0284,0.0324,0.0144,0.0485,0.0535,0.0757,0.0737,0.0752,0.0768,0.118,0.1183,0.1185,0.1006,0,0,0,0,0,0,-0.0111,-0.0108,-0.0111,-0.0057,-0.0043,-0.0029,0.0036,0.0056,0.0091,0.0102,0.0318,0.0361,0.049,0.0731,0.0774,0.0761,0.0781,0.1178,0.1181,0.1184,0.101,0.1001,0.0994,0,0,0,0,0,-0.0113,-0.0124,-0.0112,-0.0108,-0.0054,-0.0031,-0.0017,0.0051,0.009,0.0098,0.0293,0.0355,0.0777,0.0748,0.0797,0.0788,0.1177,0.1181,0.1184,0.1013,0.1003,0.0995,0,0,0,0,0,0,-0.0129,-0.0112,-0.0096,-0.0099,-0.0076,-0.0012,0.0003,0.0043,0.0191,0.023,0.0413,0.0472,0.0654,0.0759,0.0722,0.0925,0.0971,0.0985,0.0824,0.0817,0.0809,0.0704,0.0795,0,0,0,0,0,-0.0144,-0.015,-0.0124,-0.0126,-0.0121,-0.0062,-0.004,0.0002,0.0124,0.0185,0.0342,0.0525,0.0699,0.079,0.0963,0.1087,0.1129,0.1104,0.1096,0.1089,0.104,0.1055,0.104,0.1197,0.1197,0.1197,0,0,-0.0153,-0.0144,-0.0146,-0.0131,-0.0102,-0.0096,-0.0042,-0.0017,0.0008,0.0222,0.035,0.0527,0.0738,0.0887,0.0969,0.0973,0.1088,0.1093,0.1085,0.1039,0.1056,0.104,0.1025,0.1199,0.1199,0.1198,0,0,-0.0174,-0.0168,-0.018,-0.0169,-0.0146,-0.0116,-0.0118,-0.0047,0.0002,0.0145,0.0306,0.0462,0.0729,0.0841,0.0943,0.0994,0.1064,0.1054,0.0912,0.0927,0.0911,0.0898,0.0995,0.0992,0.1025,0.1025,0.1025,0,-0.018,-0.0195,-0.0178,-0.0185,-0.018,-0.0134,-0.014,-0.0095,0.0049,0.0093,0.0174,0.0505,0.0688,0.0821,0.0849,0.0965,0.1014,0.0922,0.0906,0.0893,0.0882,0.0985,0.0983,0.1017,0.1018,0.1019,0.1019,0,-0.0209,-0.0219,-0.0227,-0.0226,-0.0218,-0.0218,-0.0177,-0.0137,-0.006,-0.0003,0.0149,0.0377,0.0551,0.063,0.0775,0.079,0.087,0.0903,0.0899,0.0853,0.0969,0.097,0.1005,0.1008,0.101,0.1012,0,0,-0.0225,-0.0244,-0.0248,-0.0258,-0.024,-0.0239,-0.0216,-0.0189,-0.0172,-0.0051,-0.0012,0.024,0.0313,0.0429,0.0586,0.0597,0.0616,0.0699,0.0704,0.0745,0.0701,0.0722,0.0727,0.0628,0.0625,0.0624,0.0833,0,-0.025,-0.0287,-0.0281,-0.0306,-0.0323,-0.029,-0.0276,-0.0241,-0.0174,-0.0118,0.0005,0.0139,0.0244,0.0345,0.0356,0.0588,0.06,0.056,0.0783,0.0791,0.0768,0.072,0.0656,0.0829,0.0834,0.0835,0.0835,0,-0.0279,-0.0302,-0.034,-0.0356,-0.036,-0.0361,-0.0348,-0.0327,-0.027,-0.021,-0.015,-0.0029,0.0067,0.0145,0.0342,0.0312,0.0467,0.0598,0.0609,0.0669,0.0808,0.0871,0.0832,0.0837,0.0837,0.0837,0.0837,0,-0.0311,-0.0342,-0.0378,-0.0383,-0.0391,-0.0393,-0.039,-0.0352,-0.034,-0.0284,-0.0246,-0.0153,-0.0027,0.0072,0.0343,0.0347,0.0549,0.0604,0.0753,0.0763,0.0768,0.0778,0.0664,0.0663,0.0663,0.0662,0.0662,0,-0.0343,-0.037,-0.0398,-0.0416,-0.0454,-0.0435,-0.0454,-0.0433,-0.0402,-0.0377,-0.0308,-0.0251,-0.0049,0.0105,0.0285,0.0525,0.0501,0.0701,0.0779,0.0719,0.0722,0.0765,0.0774,0.067,0.0669,0.0667,0.0666,0,-0.0365,-0.039,-0.0437,-0.0463,-0.0472,-0.0499,-0.0512,-0.0508,-0.0479,-0.0443,-0.0426,-0.0289,-0.0103,0.0092,0.036,0.0513,0.0707,0.0795,0.075,0.0813,0.0939,0.0937,0.0974,0.0976,0.0977,0.0978,0.0979,0,-0.0381,-0.0406,-0.0472,-0.0504,-0.0517,-0.055,-0.0555,-0.0549,-0.0532,-0.0454,-0.0421,-0.0262,-0.015,0.021,0.0501,0.0775,0.0753,0.0887,0.0841,0.0878,0.0953,0.0949,0.0946,0.0843,0.0843,0.0843,0.0843,0,-0.0393,-0.0419,-0.046,-0.0528,-0.056,-0.0598,-0.0597,-0.0615,-0.0565,-0.0549,-0.0467,-0.0396,-0.0034,0.0235,0.0595,0.0739,0.0818,0.0893,0.0921,0.0748,0.0763,0.0834,0.0833,0.0841,0.0841,0.0841,0.0841,0.0841,-0.0381,-0.0437,-0.0483,-0.0555,-0.0587,-0.0614,-0.0651,-0.0641,-0.0655,-0.0582,-0.0478,-0.0313,-0.0043,0.0454,0.0638,0.0854,0.0899,0.0933,0.093,0.0928,0.0848,0.086,0.0949,0.095,0.0951,0.0951,0.0952,0,-0.035,-0.0424,-0.0492,-0.0583,-0.0627,-0.0619,-0.0644,-0.0678,-0.0703,-0.0541,-0.046,-0.0183,0.0105,0.0357,0.073,0.0929,0.0901,0.0883,0.0808,0.081,0.0812,0.0721,0.0792,0.0792,0.0792,0.0792,0,0,-0.0333,-0.0422,-0.0496,-0.0597,-0.0633,-0.0669,-0.069,-0.0734,-0.0652,-0.0565,-0.0375,-0.0108,0.0192,0.0398,0.0572,0.0706,0.0706,0.0691,0.0806,0.0698,0.0697,0.0833,0.0695,0,0,0,0,0]}],[{"header":{"parameterUnit":"m.s-1","parameterCategory":2,"la1":30.2991,"la2":30.254,"lo1":-89.0895,"lo2":-89.0444,"dy":0.0017,"dx":0.0017,"nx":28,"ny":28,"refTime":"2023-08-01T09:00:00:Z","depth":"4","parameterNumber":2,"parameterNumberName":"U-component_of_CURRENTS"},"data":[0,0,0,0,0,0,0,0,0,0,0,0,0,0,0,0,0,0,0,0,0,0,0,0,0,0,0,0,0,0,0,0,0,0,0,0,0,0,0,0,0,0,0,0,0,0,0,0,0,0,0,0,0,0,0,0,0,0,-0.1333,-0.1334,0,-0.138,-0.138,-0.138,-0.1397,-0.1397,-0.1397,-0.1397,-0.1453,-0.1454,-0.1456,0,0,0,0,0,0,0,0,0,0,0,0,0,-0.1256,-0.1257,-0.1333,-0.1334,-0.1334,-0.138,-0.138,-0.138,-0.1397,-0.1397,-0.1397,-0.1397,-0.1452,-0.1454,-0.1456,0,0,0,0,0,0,0,0,0,0,0,0,0,-0.1293,-0.1258,-0.1333,-0.135,-0.1352,-0.1379,-0.138,-0.1381,-0.1397,-0.1397,-0.1397,-0.1397,-0.1452,-0.1454,-0.1456,-0.1469,0,0,-0.1463,-0.1464,0,0,0,0,0,0,0,0,-0.1291,-0.1295,-0.1346,-0.1349,-0.1351,-0.1384,-0.1373,-0.1411,-0.1397,-0.1378,-0.1397,-0.1397,-0.1432,-0.1436,-0.1442,-0.1471,-0.1474,-0.1463,-0.1464,-0.1465,-0.1466,0,0,0,0,0,0,0,-0.1288,-0.1294,-0.1349,-0.1347,-0.135,-0.1355,-0.136,-0.138,-0.1403,-0.138,-0.1381,-0.139,-0.1433,-0.1439,-0.1443,-0.1474,-0.1463,-0.1465,-0.1466,-0.1467,-0.1544,-0.1545,0,0,0,0,0,0,-0.1287,-0.1291,-0.1348,-0.1351,-0.1323,-0.1356,-0.1362,-0.1372,-0.1402,-0.1408,-0.139,-0.1391,-0.1436,-0.1441,-0.1445,-0.1495,-0.1465,-0.1467,-0.1468,-0.1544,-0.1545,-0.1545,0,0,0,0,0,0,-0.1285,-0.1292,-0.1346,-0.1323,-0.1331,-0.1358,-0.1369,-0.1373,-0.1398,-0.1411,-0.1415,-0.1413,-0.1436,-0.1442,-0.1477,-0.1496,-0.1468,-0.147,-0.1543,-0.1544,-0.1545,-0.1574,0,0,0,0,0,0,-0.1283,-0.1291,-0.1308,-0.1324,-0.1332,-0.1371,-0.1369,-0.1374,-0.1403,-0.1404,-0.1431,-0.1435,-0.1436,-0.1474,-0.1479,-0.1498,-0.1472,-0.1542,-0.1543,-0.1545,-0.1572,-0.1576,-0.1579,0,0,0,0,0,-0.128,-0.1296,-0.1308,-0.1316,-0.1351,-0.1371,-0.1376,-0.1393,-0.1404,-0.1416,-0.1436,-0.1436,-0.1486,-0.1476,-0.1482,-0.1503,-0.1541,-0.1543,-0.1545,-0.157,-0.1575,-0.1579,0,0,0,0,0,0,-0.1267,-0.13,-0.1313,-0.1338,-0.136,-0.1375,-0.1393,-0.1406,-0.1432,-0.1441,-0.145,-0.1456,-0.1487,-0.1495,-0.1483,-0.1528,-0.1512,-0.1515,-0.1529,-0.1534,-0.1537,-0.1547,-0.1474,0,0,0,0,0,-0.1274,-0.1299,-0.1324,-0.1346,-0.1359,-0.1382,-0.1397,-0.141,-0.1431,-0.1443,-0.1462,-0.1482,-0.1497,-0.1516,-0.1526,-0.1561,-0.1555,-0.1577,-0.158,-0.1583,-0.1595,-0.1607,-0.1613,-0.1551,-0.1551,-0.1551,0,0,-0.1275,-0.1298,-0.1312,-0.1346,-0.1365,-0.1386,-0.1391,-0.142,-0.1441,-0.1446,-0.1486,-0.1495,-0.1506,-0.1535,-0.1551,-0.1548,-0.1592,-0.1585,-0.1588,-0.1598,-0.1609,-0.1615,-0.1621,-0.1552,-0.1552,-0.1552,0,0,-0.128,-0.1311,-0.1331,-0.1352,-0.1388,-0.1403,-0.1416,-0.1445,-0.1465,-0.15,-0.1505,-0.1532,-0.156,-0.1573,-0.1582,-0.1616,-0.1604,-0.1619,-0.1656,-0.1667,-0.1673,-0.1677,-0.1652,-0.1654,-0.1629,-0.1629,-0.1629,0,-0.1281,-0.1314,-0.1338,-0.1361,-0.1388,-0.1412,-0.144,-0.1458,-0.1496,-0.1522,-0.1517,-0.157,-0.1577,-0.1618,-0.1625,-0.1626,-0.1618,-0.1638,-0.1672,-0.1677,-0.1681,-0.1655,-0.1657,-0.163,-0.163,-0.163,-0.163,0,-0.1292,-0.133,-0.1344,-0.1385,-0.1413,-0.1443,-0.1473,-0.1506,-0.1534,-0.1554,-0.1603,-0.1615,-0.1647,-0.1652,-0.165,-0.169,-0.1668,-0.1667,-0.1661,-0.1689,-0.1659,-0.166,-0.1633,-0.1632,-0.1632,-0.1631,0,0,-0.1264,-0.1341,-0.1347,-0.1381,-0.1437,-0.1456,-0.1503,-0.1554,-0.1586,-0.1621,-0.1665,-0.1693,-0.1705,-0.1716,-0.172,-0.1738,-0.1747,-0.1722,-0.1722,-0.1696,-0.1749,-0.1626,-0.1615,-0.1756,-0.1757,-0.1758,-0.1707,0,-0.1271,-0.1323,-0.1364,-0.1418,-0.1451,-0.1502,-0.1541,-0.1588,-0.1625,-0.1666,-0.1698,-0.1726,-0.1726,-0.174,-0.1762,-0.1751,-0.1758,-0.176,-0.1728,-0.1726,-0.1613,-0.1616,-0.1761,-0.1708,-0.1708,-0.1708,-0.1709,0,-0.1263,-0.1307,-0.1368,-0.1452,-0.1471,-0.1505,-0.1584,-0.1619,-0.1682,-0.1711,-0.1759,-0.1771,-0.1806,-0.1793,-0.1805,-0.1807,-0.1784,-0.1772,-0.177,-0.1651,-0.1607,-0.168,-0.1711,-0.1711,-0.1711,-0.1711,-0.171,0,-0.1222,-0.1307,-0.1363,-0.139,-0.148,-0.1524,-0.1568,-0.1637,-0.167,-0.1735,-0.1753,-0.1806,-0.1807,-0.1821,-0.1796,-0.1803,-0.1789,-0.1789,-0.1657,-0.1647,-0.1762,-0.1758,-0.1796,-0.1796,-0.1796,-0.1796,-0.1796,0,-0.1203,-0.1246,-0.1351,-0.1377,-0.144,-0.1506,-0.1567,-0.1618,-0.1682,-0.1697,-0.1764,-0.1762,-0.1815,-0.1809,-0.1803,-0.1721,-0.179,-0.1658,-0.163,-0.177,-0.1768,-0.1761,-0.1757,-0.1794,-0.1795,-0.1795,-0.1795,0,-0.1138,-0.1212,-0.1279,-0.1388,-0.1423,-0.1461,-0.1554,-0.1576,-0.1649,-0.1668,-0.1682,-0.1726,-0.1696,-0.1728,-0.1722,-0.1688,-0.1652,-0.1607,-0.1732,-0.1713,-0.1498,-0.1497,-0.1448,-0.1443,-0.1439,-0.1436,-0.1433,0,-0.1107,-0.1138,-0.1268,-0.1297,-0.1349,-0.1418,-0.145,-0.1547,-0.1558,-0.1614,-0.1595,-0.16,-0.161,-0.1498,-0.1555,-0.1529,-0.1519,-0.15,-0.1524,-0.1486,-0.1465,-0.147,-0.1474,-0.1427,-0.1426,-0.1425,-0.1424,0,-0.1041,-0.1102,-0.1154,-0.1222,-0.1271,-0.1317,-0.1366,-0.1372,-0.1446,-0.1525,-0.1456,-0.1439,-0.1394,-0.1388,-0.1374,-0.1365,-0.1521,-0.1459,-0.1467,-0.149,-0.146,-0.1444,-0.1453,-0.141,-0.1412,-0.1413,-0.1414,0,-0.0986,-0.1007,-0.1079,-0.1126,-0.1178,-0.118,-0.1237,-0.1231,-0.1262,-0.1328,-0.1292,-0.1305,-0.1347,-0.1298,-0.1291,-0.1268,-0.1255,-0.1243,-0.1262,-0.1278,-0.1252,-0.1192,-0.1029,0,0,0,0,0,-0.0922,-0.0928,-0.0967,-0.101,-0.1052,-0.1079,-0.1151,-0.1204,-0.1284,-0.119,-0.1241,-0.119,-0.1151,-0.117,-0.111,-0.123,-0.1276,-0.1159,-0.1277,-0.1334,-0.135,-0.1338,0,0,0,0,0,0,-0.0873,-0.0906,-0.0931,-0.0892,-0.0888,-0.0918,-0.0959,-0.1022,-0.0985,-0.1067,-0.1044,-0.1111,-0.1088,-0.1141,-0.1073,-0.1083,-0.1136,-0.1185,-0.1183,-0.1325,-0.1339,-0.1352,-0.1346,0,0,0,0,0]},{"header":{"parameterUnit":"m.s-1","parameterCategory":2,"la1":30.2991,"la2":30.254,"lo1":-89.0895,"lo2":-89.0444,"dy":0.0017,"dx":0.0017,"nx":28,"ny":28,"refTime":"2023-08-01T09:00:00:Z","depth":"4","parameterNumber":3,"parameterNumberName":"V-component_of_CURRENTS"},"data":[0,0,0,0,0,0,0,0,0,0,0,0,0,0,0,0,0,0,0,0,0,0,0,0,0,0,0,0,0,0,0,0,0,0,0,0,0,0,0,0,0,0,0,0,0,0,0,0,0,0,0,0,0,0,0,0,0,0,-0.0161,-0.0161,0,-0.0154,-0.0154,-0.0154,-0.0131,-0.013,-0.013,-0.013,-0.0068,-0.0067,-0.0066,0,0,0,0,0,0,0,0,0,0,0,0,0,-0.0133,-0.0133,-0.0161,-0.0161,-0.0161,-0.0154,-0.0154,-0.0154,-0.0131,-0.013,-0.013,-0.0129,-0.0069,-0.0067,-0.0065,0,0,0,0,0,0,0,0,0,0,0,0,0,-0.0136,-0.0134,-0.0161,-0.015,-0.0149,-0.0154,-0.0154,-0.0154,-0.0131,-0.013,-0.013,-0.0129,-0.0069,-0.0067,-0.0065,-0.0065,0,0,-0.0059,-0.0059,0,0,0,0,0,0,0,0,-0.0136,-0.0137,-0.0151,-0.0151,-0.015,-0.0144,-0.0121,-0.0122,-0.0131,-0.0136,-0.013,-0.0129,-0.009,-0.0086,-0.0085,-0.0062,-0.0059,-0.0059,-0.0058,-0.0057,-0.0057,0,0,0,0,0,0,0,-0.0136,-0.0137,-0.0157,-0.0151,-0.015,-0.0138,-0.0138,-0.0121,-0.0114,-0.0136,-0.0134,-0.0136,-0.0089,-0.0087,-0.0083,-0.0058,-0.0059,-0.0058,-0.0056,-0.0056,-0.0036,-0.0037,0,0,0,0,0,0,-0.0142,-0.0137,-0.0157,-0.0157,-0.0143,-0.0139,-0.0139,-0.0145,-0.0115,-0.0111,-0.0137,-0.0135,-0.009,-0.0085,-0.0081,-0.0074,-0.0057,-0.0055,-0.0054,-0.0035,-0.0036,-0.0037,0,0,0,0,0,0,-0.0141,-0.0144,-0.0157,-0.0147,-0.0148,-0.0141,-0.0147,-0.0145,-0.0144,-0.0117,-0.0111,-0.0137,-0.009,-0.0083,-0.0074,-0.0072,-0.0055,-0.0053,-0.0035,-0.0036,-0.0036,-0.0064,0,0,0,0,0,0,-0.014,-0.0143,-0.0149,-0.0148,-0.0149,-0.0163,-0.0148,-0.0146,-0.0146,-0.0144,-0.0116,-0.0109,-0.0089,-0.0077,-0.0072,-0.0069,-0.0051,-0.0034,-0.0035,-0.0036,-0.0062,-0.0065,-0.0068,0,0,0,0,0,-0.0139,-0.0151,-0.015,-0.0152,-0.0158,-0.0164,-0.0164,-0.0154,-0.0147,-0.015,-0.0135,-0.011,-0.0081,-0.0076,-0.007,-0.0066,-0.0033,-0.0035,-0.0036,-0.006,-0.0065,-0.0068,0,0,0,0,0,0,-0.0142,-0.015,-0.0148,-0.0162,-0.0164,-0.0161,-0.0164,-0.0159,-0.015,-0.0146,-0.0119,-0.0112,-0.0109,-0.0087,-0.0082,-0.0066,-0.0053,-0.0053,-0.0073,-0.0077,-0.008,-0.0071,-0.005,0,0,0,0,0,-0.0147,-0.0157,-0.0161,-0.0171,-0.0175,-0.0171,-0.0172,-0.0167,-0.016,-0.0156,-0.0138,-0.0119,-0.0111,-0.0093,-0.0086,-0.007,-0.0024,-0.0065,-0.0068,-0.0071,-0.006,0.0014,0.002,-0.0041,-0.0041,-0.0041,0,0,-0.0152,-0.0157,-0.0163,-0.0173,-0.0174,-0.0183,-0.0169,-0.0175,-0.0178,-0.015,-0.0147,-0.0137,-0.0114,-0.0106,-0.01,-0.0082,-0.0033,-0.0073,-0.0075,-0.0063,0.0014,0.002,0.0026,-0.0042,-0.0042,-0.0042,0,0,-0.0168,-0.0172,-0.0185,-0.0189,-0.0195,-0.0193,-0.0197,-0.0196,-0.019,-0.0192,-0.0175,-0.0158,-0.0146,-0.0119,-0.0107,-0.0121,-0.0065,-0.0125,-0.0114,-0.0043,-0.0036,-0.003,0.0025,0.0037,-0.0111,-0.0111,-0.0111,0,-0.0171,-0.0191,-0.019,-0.0202,-0.0208,-0.02,-0.0214,-0.021,-0.0204,-0.0196,-0.0196,-0.0166,-0.0149,-0.0119,-0.0127,-0.0124,-0.008,-0.0101,-0.0044,-0.0036,-0.0029,0.0026,0.0039,-0.0112,-0.0112,-0.0112,-0.0112,0,-0.0197,-0.0211,-0.022,-0.0233,-0.0237,-0.0249,-0.0245,-0.0243,-0.0238,-0.0227,-0.0209,-0.0184,-0.0157,-0.0154,-0.0145,-0.0092,-0.0078,-0.0067,-0.0028,-0.0024,0.0033,0.0047,-0.0115,-0.0114,-0.0114,-0.0113,0,0,-0.0214,-0.0234,-0.0239,-0.0251,-0.0256,-0.0265,-0.0264,-0.0261,-0.0258,-0.0238,-0.0223,-0.0198,-0.0173,-0.0157,-0.0133,-0.0067,0.0009,-0.0045,-0.0041,0.0019,0.0165,0.0146,0.016,0.0037,0.004,0.0042,0.0181,0,-0.0236,-0.0269,-0.0269,-0.0297,-0.0315,-0.0303,-0.0304,-0.0294,-0.0282,-0.0265,-0.0215,-0.0203,-0.0176,-0.0167,-0.0094,-0.0035,0.0048,-0.003,0.0144,0.0149,0.0141,0.0176,0.005,0.0192,0.0195,0.0197,0.0199,0,-0.0265,-0.0284,-0.0317,-0.0334,-0.034,-0.035,-0.0348,-0.0348,-0.0312,-0.0298,-0.0251,-0.0223,-0.0149,-0.0126,0.0034,-0.0016,0.008,0.0144,0.0152,0.0158,0.0157,0.0189,0.0226,0.0224,0.0222,0.022,0.0218,0,-0.0289,-0.0318,-0.0348,-0.0354,-0.0369,-0.0375,-0.0379,-0.0357,-0.0364,-0.0317,-0.032,-0.0215,-0.0194,-0.0044,0.0066,0.0064,0.0245,0.0261,0.0348,0.0347,0.0335,0.0327,0.0414,0.0414,0.0413,0.0413,0.0413,0,-0.0317,-0.0344,-0.0364,-0.0381,-0.0416,-0.0406,-0.043,-0.0416,-0.0399,-0.0412,-0.034,-0.033,-0.0171,-0.0069,0.0075,0.0239,0.0262,0.0365,0.0392,0.0316,0.0304,0.0345,0.0335,0.0418,0.0417,0.0416,0.0415,0,-0.0348,-0.0358,-0.0399,-0.0421,-0.0433,-0.0459,-0.0487,-0.0502,-0.0478,-0.0492,-0.0485,-0.0412,-0.0276,-0.011,0.0109,0.0219,0.0397,0.0459,0.0351,0.0366,0.0458,0.0445,0.0594,0.0594,0.0595,0.0596,0.0596,0,-0.0368,-0.039,-0.0438,-0.0472,-0.0489,-0.0525,-0.0555,-0.0545,-0.0562,-0.0547,-0.0558,-0.0455,-0.0382,-0.0091,0.0093,0.0386,0.0425,0.0518,0.0517,0.047,0.0482,0.0467,0.0454,0.0597,0.0597,0.0597,0.0597,0,-0.0408,-0.0425,-0.0459,-0.0526,-0.0571,-0.0624,-0.0659,-0.0674,-0.0665,-0.0655,-0.0604,-0.0465,-0.032,-0.0097,0.0114,0.0325,0.0457,0.0526,0.0527,0.0527,0.0476,0.0483,0.0469,0.0599,0.0599,0.0599,0.0599,0,-0.0438,-0.0476,-0.0519,-0.0576,-0.0644,-0.0698,-0.071,-0.0715,-0.0717,-0.0679,-0.0666,-0.0502,-0.0408,-0.0128,0.0069,0.0266,0.0333,0.0404,0.0413,0.0413,0.0311,0.0217,0.0301,0,0,0,0,0,-0.0463,-0.0505,-0.0567,-0.0633,-0.0701,-0.0731,-0.0773,-0.0772,-0.0762,-0.0727,-0.0686,-0.0539,-0.0262,-0.0155,0.0047,0.009,0.0364,0.0333,0.0449,0.0611,0.0609,0.0517,0,0,0,0,0,0,-0.0484,-0.0542,-0.057,-0.0664,-0.0714,-0.0786,-0.0808,-0.0802,-0.0761,-0.0729,-0.058,-0.0496,-0.0223,-0.0379,0.0045,0.0102,0.0204,0.0466,0.047,0.0612,0.061,0.0608,0.0514,0,0,0,0,0]}]]